| time (UTC) | temp F | wind direction | speed MPH | gust MPH | rain 1hr in | rain 24hr in | rain mn in | humidity % | barometer mb |
| 20260902212517 | 94 | 158 | 5.0 | 12.0 | 0.00 | 0.00 | 0.00 | 1018.1 | |
| 20260902212003 | 94 | 112 | 5.0 | 12.0 | 0.00 | 0.00 | 0.00 | 1018.1 | |
| 20260902211507 | 94 | 115 | 4.0 | 11.0 | 0.00 | 0.00 | 0.00 | 1018.0 | |
| 20260902211004 | 95 | 205 | 4.0 | 11.0 | 0.00 | 0.00 | 0.00 | 1018.1 | |
| 20260902210505 | 95 | 143 | 4.0 | 15.0 | 0.00 | 0.00 | 0.00 | 1018.1 | |
| 20260902210012 | 95 | 111 | 5.0 | 15.0 | 0.00 | 0.00 | 0.00 | 39 | 1018.1 |
| 20260902205506 | 95 | 156 | 3.0 | 8.0 | 0.00 | 0.00 | 0.00 | 39 | 1018.2 |
| 20260902205006 | 95 | 90 | 3.0 | 8.0 | 0.00 | 0.00 | 0.00 | 38 | 1018.2 |
| 20260902204518 | 95 | 83 | 4.0 | 8.0 | 0.00 | 0.00 | 0.00 | 38 | 1018.3 |
| 20260902204010 | 95 | 168 | 2.0 | 10.0 | 0.00 | 0.00 | 0.00 | 39 | 1018.4 |
| 20260902203502 | 95 | 171 | 3.0 | 10.0 | 0.00 | 0.00 | 0.00 | 39 | 1018.4 |
| 20260902203023 | 95 | 154 | 4.0 | 9.0 | 0.00 | 0.00 | 0.00 | 38 | 1018.5 |
| 20260902202512 | 95 | 152 | 3.0 | 8.0 | 0.00 | 0.00 | 0.00 | 40 | 1018.6 |
| 20260902202003 | 95 | 193 | 4.0 | 10.0 | 0.00 | 0.00 | 0.00 | 39 | 1018.6 |
| 20260902201504 | 95 | 123 | 4.0 | 10.0 | 0.00 | 0.00 | 0.00 | 39 | 1018.7 |
| 20260902201004 | 95 | 173 | 5.0 | 9.0 | 0.00 | 0.00 | 0.00 | 39 | 1018.7 |
| 20260902200503 | 95 | 196 | 5.0 | 12.0 | 0.00 | 0.00 | 0.00 | 41 | 1018.8 |
| 20260902200010 | 95 | 182 | 2.0 | 12.0 | 0.00 | 0.00 | 0.00 | 40 | 1018.8 |
| 20260902195504 | 94 | 234 | 6.0 | 12.0 | 0.00 | 0.00 | 0.00 | 1018.9 | |
| 20260902195009 | 94 | 192 | 6.0 | 11.0 | 0.00 | 0.00 | 0.00 | 40 | 1018.9 |
| 20260902194516 | 95 | 143 | 4.0 | 11.0 | 0.00 | 0.00 | 0.00 | 40 | 1019.0 |
| 20260902194010 | 95 | 183 | 3.0 | 7.0 | 0.00 | 0.00 | 0.00 | 40 | 1019.1 |
| 20260902193510 | 94 | 70 | 1.0 | 12.0 | 0.00 | 0.00 | 0.00 | 40 | 1019.1 |
| 20260902193026 | 94 | 210 | 6.0 | 12.0 | 0.00 | 0.00 | 0.00 | 40 | 1019.3 |
| 20260902192502 | 94 | 136 | 3.0 | 10.0 | 0.00 | 0.00 | 0.00 | 41 | 1019.3 |
| 20260902192013 | 94 | 189 | 5.0 | 10.0 | 0.00 | 0.00 | 0.00 | 42 | 1019.4 |
| 20260902191505 | 93 | 138 | 3.0 | 12.0 | 0.00 | 0.00 | 0.00 | 43 | 1019.3 |
| 20260902191003 | 93 | 82 | 6.0 | 12.0 | 0.00 | 0.00 | 0.00 | 41 | 1019.5 |
| 20260902190504 | 94 | 234 | 5.0 | 9.0 | 0.00 | 0.00 | 0.00 | 41 | 1019.6 |
| 20260902190009 | 95 | 134 | 3.0 | 10.0 | 0.00 | 0.00 | 0.00 | 41 | 1019.6 |
| 20260902185503 | 94 | 203 | 2.0 | 10.0 | 0.00 | 0.00 | 0.00 | 41 | 1019.6 |
| 20260902185004 | 94 | 189 | 5.0 | 10.0 | 0.00 | 0.00 | 0.00 | 41 | 1019.7 |
| 20260902184517 | 94 | 189 | 5.0 | 10.0 | 0.00 | 0.00 | 0.00 | 42 | 1019.8 |
| 20260902184006 | 93 | 217 | 5.0 | 10.0 | 0.00 | 0.00 | 0.00 | 42 | 1019.8 |
| 20260902183508 | 93 | 227 | 5.0 | 10.0 | 0.00 | 0.00 | 0.00 | 41 | 1019.9 |
| 20260902183018 | 94 | 150 | 5.0 | 10.0 | 0.00 | 0.00 | 0.00 | 42 | 1019.9 |
| 20260902182515 | 93 | 171 | 4.0 | 8.0 | 0.00 | 0.00 | 0.00 | 43 | 1020.0 |
| 20260902182009 | 94 | 248 | 3.0 | 10.0 | 0.00 | 0.00 | 0.00 | 43 | 1020.2 |
| 20260902181526 | 94 | 178 | 5.0 | 10.0 | 0.00 | 0.00 | 0.00 | 42 | 1020.2 |
| 20260902181013 | 93 | 140 | 4.0 | 10.0 | 0.00 | 0.00 | 0.00 | 44 | 1020.2 |
| 20260902180503 | 93 | 350 | 1.0 | 10.0 | 0.00 | 0.00 | 0.00 | 44 | 1020.3 |
| 20260902180014 | 93 | 127 | 3.0 | 10.0 | 0.00 | 0.00 | 0.00 | 42 | 1020.4 |
| 20260902175506 | 92 | 292 | 1.0 | 10.0 | 0.00 | 0.00 | 0.00 | 44 | 1020.4 |
| 20260902175006 | 92 | 228 | 5.0 | 13.0 | 0.00 | 0.00 | 0.00 | 44 | 1020.6 |
| 20260902174517 | 93 | 184 | 3.0 | 13.0 | 0.00 | 0.00 | 0.00 | 44 | 1020.6 |
| 20260902174018 | 92 | 194 | 4.0 | 13.0 | 0.00 | 0.00 | 0.00 | 44 | 1020.7 |
| 20260902173509 | 92 | 223 | 6.0 | 13.0 | 0.00 | 0.00 | 0.00 | 45 | 1020.7 |
| 20260902173018 | 92 | 169 | 5.0 | 10.0 | 0.00 | 0.00 | 0.00 | 44 | 1020.9 |
| 20260902172510 | 92 | 208 | 4.0 | 11.0 | 0.00 | 0.00 | 0.00 | 45 | 1020.8 |
| 20260902172010 | 92 | 191 | 5.0 | 12.0 | 0.00 | 0.00 | 0.00 | 44 | 1020.9 |
| 20260902171523 | 92 | 188 | 4.0 | 12.0 | 0.00 | 0.00 | 0.00 | 44 | 1020.9 |
| 20260902171019 | 92 | 171 | 3.0 | 9.0 | 0.00 | 0.00 | 0.00 | 44 | 1020.9 |
| 20260902170511 | 91 | 159 | 4.0 | 12.0 | 0.00 | 0.00 | 0.00 | 45 | 1021.0 |
| 20260902170025 | 91 | 194 | 5.0 | 12.0 | 0.00 | 0.00 | 0.00 | 46 | 1020.9 |
| 20260902165504 | 91 | 117 | 5.0 | 11.0 | 0.00 | 0.00 | 0.00 | 45 | 1021.2 |
| 20260902165003 | 90 | 155 | 4.0 | 13.0 | 0.00 | 0.00 | 0.00 | 47 | 1021.2 |
| 20260902164506 | 90 | 168 | 4.0 | 13.0 | 0.00 | 0.00 | 0.00 | 47 | 1021.3 |
| 20260902164006 | 90 | 144 | 4.0 | 13.0 | 0.00 | 0.00 | 0.00 | 47 | 1021.3 |
| 20260902163506 | 90 | 132 | 5.0 | 11.0 | 0.00 | 0.00 | 0.00 | 48 | 1021.2 |
| 20260902163012 | 90 | 104 | 4.0 | 10.0 | 0.00 | 0.00 | 0.00 | 47 | 1021.3 |
| 20260902162518 | 90 | 324 | 3.0 | 8.0 | 0.00 | 0.00 | 0.00 | 49 | 1021.4 |
| 20260902162012 | 89 | 97 | 2.0 | 9.0 | 0.00 | 0.00 | 0.00 | 49 | 1021.4 |
| 20260902161531 | 89 | 153 | 5.0 | 9.0 | 0.00 | 0.00 | 0.00 | 49 | 1021.5 |
| 20260902161012 | 89 | 234 | 5.0 | 10.0 | 0.00 | 0.00 | 0.00 | 49 | 1021.5 |
| 20260902160512 | 89 | 221 | 4.0 | 9.0 | 0.00 | 0.00 | 0.00 | 52 | 1021.5 |
| 20260902160027 | 89 | 190 | 4.0 | 10.0 | 0.00 | 0.00 | 0.00 | 50 | 1021.5 |
| 20260902155511 | 88 | 139 | 2.0 | 10.0 | 0.00 | 0.00 | 0.00 | 52 | 1021.5 |
| 20260902155013 | 88 | 205 | 5.0 | 10.0 | 0.00 | 0.00 | 0.00 | 52 | 1021.5 |
| 20260902154510 | 87 | 202 | 3.0 | 11.0 | 0.00 | 0.00 | 0.00 | 54 | 1021.5 |
| 20260902154003 | 87 | 190 | 3.0 | 11.0 | 0.00 | 0.00 | 0.00 | 53 | 1021.4 |
| 20260902153504 | 87 | 138 | 5.0 | 10.0 | 0.00 | 0.00 | 0.00 | 54 | 1021.4 |
| 20260902153012 | 87 | 196 | 5.0 | 10.0 | 0.00 | 0.00 | 0.00 | 54 | 1021.5 |
| 20260902152514 | 86 | 125 | 3.0 | 10.0 | 0.00 | 0.00 | 0.00 | 54 | 1021.4 |
| 20260902152006 | 86 | 147 | 3.0 | 11.0 | 0.00 | 0.00 | 0.00 | 54 | 1021.4 |
| 20260902151532 | 86 | 49 | 5.0 | 14.0 | 0.00 | 0.00 | 0.00 | 54 | 1021.3 |
| 20260902151010 | 85 | 153 | 4.0 | 14.0 | 0.00 | 0.00 | 0.00 | 55 | 1021.2 |
| 20260902150512 | 86 | 156 | 7.0 | 12.0 | 0.00 | 0.00 | 0.00 | 54 | 1021.2 |
| 20260902150023 | 86 | 189 | 5.0 | 10.0 | 0.00 | 0.00 | 0.00 | 54 | 1021.2 |
| 20260902145512 | 86 | 212 | 5.0 | 10.0 | 0.00 | 0.00 | 0.00 | 55 | 1021.2 |
| 20260902145012 | 86 | 227 | 3.0 | 8.0 | 0.00 | 0.00 | 0.00 | 55 | 1021.1 |
| 20260902144531 | 86 | 236 | 4.0 | 8.0 | 0.00 | 0.00 | 0.00 | 55 | 1021.2 |
| 20260902144015 | 85 | 154 | 4.0 | 8.0 | 0.00 | 0.00 | 0.00 | 56 | 1021.2 |
| 20260902143517 | 85 | 144 | 2.0 | 9.0 | 0.00 | 0.00 | 0.00 | 58 | 1021.2 |
| 20260902143012 | 84 | 173 | 4.0 | 9.0 | 0.00 | 0.00 | 0.00 | 59 | 1021.2 |
| 20260902142504 | 84 | 213 | 2.0 | 6.0 | 0.00 | 0.00 | 0.00 | 60 | 1021.2 |
| 20260902142004 | 83 | 184 | 2.0 | 5.0 | 0.00 | 0.00 | 0.00 | 62 | 1021.2 |
| 20260902141515 | 83 | 205 | 2.0 | 6.0 | 0.00 | 0.00 | 0.00 | 62 | 1021.2 |
| 20260902141016 | 82 | 186 | 3.0 | 7.0 | 0.00 | 0.00 | 0.00 | 64 | 1021.1 |
| 20260902140508 | 82 | 190 | 3.0 | 7.0 | 0.00 | 0.00 | 0.00 | 64 | 1021.2 |
| 20260902140026 | 82 | 184 | 3.0 | 6.0 | 0.00 | 0.00 | 0.00 | 65 | 1021.2 |
| 20260902135514 | 81 | 215 | 3.0 | 6.0 | 0.00 | 0.00 | 0.00 | 65 | 1021.2 |
| 20260902135012 | 81 | 165 | 2.0 | 6.0 | 0.00 | 0.00 | 0.00 | 66 | 1021.1 |
| 20260902134530 | 81 | 186 | 3.0 | 5.0 | 0.00 | 0.00 | 0.00 | 67 | 1021.2 |
| 20260902134017 | 80 | 179 | 2.0 | 4.0 | 0.00 | 0.00 | 0.00 | 68 | 1021.3 |
| 20260902133517 | 80 | 211 | 2.0 | 4.0 | 0.00 | 0.00 | 0.00 | 70 | 1021.3 |
| 20260902133032 | 79 | 179 | 1.0 | 3.0 | 0.00 | 0.00 | 0.00 | 71 | 1021.3 |
| 20260902132513 | 78 | 225 | 1.0 | 2.0 | 0.00 | 0.00 | 0.00 | 72 | 1021.3 |
| 20260902132017 | 78 | 232 | 1.0 | 3.0 | 0.00 | 0.00 | 0.00 | 73 | 1021.3 |
| 20260902131512 | 77 | 222 | 2.0 | 3.0 | 0.00 | 0.00 | 0.00 | 73 | 1021.2 |
| 20260902131009 | 77 | 215 | 1.0 | 2.0 | 0.00 | 0.00 | 0.00 | 74 | 1021.2 |
| 20260902130506 | 76 | 223 | 0.0 | 2.0 | 0.00 | 0.00 | 0.00 | 74 | 1021.2 |
| 20260902130018 | 76 | 163 | 0.0 | 2.0 | 0.00 | 0.00 | 0.00 | 75 | 1021.1 |
| 20260902125510 | 76 | 163 | 0.0 | 3.0 | 0.00 | 0.00 | 0.00 | 76 | 1021.1 |
| 20260902125010 | 75 | 178 | 0.0 | 5.0 | 0.00 | 0.00 | 0.00 | 77 | 1021.1 |
| 20260902124523 | 74 | 170 | 1.0 | 5.0 | 0.00 | 0.00 | 0.00 | 78 | 1021.0 |
| 20260902124011 | 74 | 152 | 1.0 | 4.0 | 0.00 | 0.00 | 0.00 | 79 | 1020.9 |
| 20260902123514 | 73 | 211 | 1.0 | 4.0 | 0.00 | 0.00 | 0.00 | 80 | 1020.9 |
| 20260902123028 | 73 | 157 | 1.0 | 3.0 | 0.00 | 0.00 | 0.00 | 80 | 1020.8 |
| 20260902122515 | 72 | 207 | 1.0 | 3.0 | 0.00 | 0.00 | 0.00 | 81 | 1020.8 |
| 20260902122020 | 72 | 226 | 1.0 | 3.0 | 0.00 | 0.00 | 0.00 | 81 | 1020.8 |
| 20260902121532 | 72 | 211 | 1.0 | 3.0 | 0.00 | 0.00 | 0.00 | 81 | 1020.7 |
| 20260902121014 | 72 | 229 | 1.0 | 3.0 | 0.00 | 0.00 | 0.00 | 81 | 1020.6 |
| 20260902120508 | 72 | 238 | 1.0 | 4.0 | 0.00 | 0.00 | 0.00 | 81 | 1020.6 |
| 20260902120018 | 72 | 225 | 1.0 | 4.0 | 0.00 | 0.00 | 0.00 | 81 | 1020.4 |
| 20260902115512 | 72 | 178 | 1.0 | 3.0 | 0.00 | 0.00 | 0.00 | 80 | 1020.5 |
| 20260902115010 | 72 | 219 | 1.0 | 3.0 | 0.00 | 0.00 | 0.00 | 80 | 1020.4 |
| 20260902114528 | 72 | 201 | 0.0 | 3.0 | 0.00 | 0.00 | 0.00 | 80 | 1020.4 |
| 20260902114013 | 73 | 215 | 1.0 | 2.0 | 0.00 | 0.00 | 0.00 | 79 | 1020.4 |
| 20260902113512 | 73 | 209 | 1.0 | 3.0 | 0.00 | 0.00 | 0.00 | 79 | 1020.4 |
| 20260902113033 | 73 | 214 | 1.0 | 3.0 | 0.00 | 0.00 | 0.00 | 79 | 1020.3 |
| 20260902112519 | 73 | 231 | 1.0 | 3.0 | 0.00 | 0.00 | 0.00 | 79 | 1020.3 |
| 20260902112019 | 73 | 197 | 1.0 | 3.0 | 0.00 | 0.00 | 0.00 | 78 | 1020.2 |
| 20260902111532 | 73 | 207 | 1.0 | 3.0 | 0.00 | 0.00 | 0.00 | 78 | 1020.2 |
| 20260902111016 | 73 | 161 | 1.0 | 5.0 | 0.00 | 0.00 | 0.00 | 78 | 1020.3 |
| 20260902110520 | 73 | 191 | 1.0 | 5.0 | 0.00 | 0.00 | 0.00 | 78 | 1020.3 |
| 20260902110030 | 74 | 173 | 1.0 | 3.0 | 0.00 | 0.00 | 0.00 | 78 | 1020.3 |
| 20260902105515 | 74 | 190 | 1.0 | 5.0 | 0.00 | 0.00 | 0.00 | 77 | 1020.2 |
| 20260902105015 | 74 | 189 | 1.0 | 5.0 | 0.00 | 0.00 | 0.00 | 77 | 1020.1 |
| 20260902104531 | 74 | 169 | 2.0 | 5.0 | 0.00 | 0.00 | 0.00 | 77 | 1020.1 |
| 20260902104011 | 74 | 194 | 1.0 | 5.0 | 0.00 | 0.00 | 0.00 | 77 | 1020.1 |
| 20260902103503 | 74 | 202 | 1.0 | 5.0 | 0.00 | 0.00 | 0.00 | 77 | 1020.0 |
| 20260902103004 | 74 | 198 | 1.0 | 3.0 | 0.00 | 0.00 | 0.00 | 77 | 1020.0 |
| 20260902102503 | 74 | 189 | 1.0 | 3.0 | 0.00 | 0.00 | 0.00 | 76 | 1020.0 |
| 20260902102003 | 74 | 219 | 0.0 | 3.0 | 0.00 | 0.00 | 0.00 | 76 | 1020.0 |
| 20260902101509 | 75 | 174 | 1.0 | 5.0 | 0.00 | 0.00 | 0.00 | 76 | 1020.0 |
| 20260902101004 | 75 | 189 | 2.0 | 5.0 | 0.00 | 0.00 | 0.00 | 76 | 1020.0 |
| 20260902100504 | 75 | 164 | 2.0 | 5.0 | 0.00 | 0.00 | 0.00 | 75 | 1020.0 |
| 20260902100015 | 75 | 211 | 2.0 | 6.0 | 0.00 | 0.00 | 0.00 | 75 | 1020.0 |
| 20260902095506 | 75 | 163 | 2.0 | 6.0 | 0.00 | 0.00 | 0.00 | 75 | 1020.0 |
| 20260902095005 | 75 | 141 | 1.0 | 5.0 | 0.00 | 0.00 | 0.00 | 75 | 1020.0 |
| 20260902094519 | 75 | 184 | 3.0 | 6.0 | 0.00 | 0.00 | 0.00 | 75 | 1020.1 |
| 20260902094010 | 75 | 165 | 2.0 | 6.0 | 0.00 | 0.00 | 0.00 | 75 | 1020.1 |
| 20260902093509 | 75 | 177 | 2.0 | 6.0 | 0.00 | 0.00 | 0.00 | 75 | 1020.0 |
| 20260902093027 | 75 | 209 | 2.0 | 6.0 | 0.00 | 0.00 | 0.00 | 75 | 1020.1 |
| 20260902092518 | 75 | 177 | 3.0 | 8.0 | 0.00 | 0.00 | 0.00 | 74 | 1019.9 |
| 20260902092003 | 75 | 184 | 3.0 | 8.0 | 0.00 | 0.00 | 0.00 | 74 | 1020.0 |
| 20260902091510 | 75 | 198 | 2.0 | 7.0 | 0.00 | 0.00 | 0.00 | 74 | 1020.0 |
| 20260902091002 | 75 | 176 | 3.0 | 6.0 | 0.00 | 0.00 | 0.00 | 75 | 1020.0 |
| 20260902090502 | 75 | 213 | 2.0 | 5.0 | 0.00 | 0.00 | 0.00 | 74 | 1020.0 |
| 20260902090013 | 75 | 180 | 2.0 | 5.0 | 0.00 | 0.00 | 0.00 | 74 | 1020.0 |
| 20260902085503 | 75 | 200 | 1.0 | 6.0 | 0.00 | 0.00 | 0.00 | 74 | 1020.0 |
| 20260902085007 | 75 | 194 | 2.0 | 5.0 | 0.00 | 0.00 | 0.00 | 74 | 1020.0 |
| 20260902084519 | 75 | 206 | 2.0 | 4.0 | 0.00 | 0.00 | 0.00 | 74 | 1020.0 |
| 20260902084008 | 75 | 217 | 1.0 | 3.0 | 0.00 | 0.00 | 0.00 | 73 | 1020.0 |
| 20260902083514 | 76 | 253 | 1.0 | 3.0 | 0.00 | 0.00 | 0.00 | 73 | 1020.0 |
| 20260902083032 | 76 | 200 | 1.0 | 3.0 | 0.00 | 0.00 | 0.00 | 73 | 1019.9 |
| 20260902082512 | 76 | 194 | 0.0 | 5.0 | 0.00 | 0.00 | 0.00 | 72 | 1019.8 |
| 20260902082019 | 76 | 182 | 2.0 | 4.0 | 0.00 | 0.00 | 0.00 | 72 | 1019.8 |
| 20260902081530 | 76 | 175 | 2.0 | 4.0 | 0.00 | 0.00 | 0.00 | 72 | 1019.8 |
| 20260902081014 | 76 | 215 | 2.0 | 5.0 | 0.00 | 0.00 | 0.00 | 72 | 1019.8 |
| 20260902080516 | 76 | 183 | 2.0 | 5.0 | 0.00 | 0.00 | 0.00 | 72 | 1019.9 |
| 20260902080011 | 76 | 240 | 2.0 | 5.0 | 0.00 | 0.00 | 0.00 | 71 | 1019.9 |
| 20260902075505 | 77 | 234 | 2.0 | 6.0 | 0.00 | 0.00 | 0.00 | 71 | 1019.9 |
| 20260902075003 | 77 | 165 | 3.0 | 6.0 | 0.00 | 0.00 | 0.00 | 71 | 1020.0 |
| 20260902074515 | 77 | 194 | 1.0 | 7.0 | 0.00 | 0.00 | 0.00 | 70 | 1019.9 |
| 20260902074005 | 77 | 190 | 3.0 | 7.0 | 0.00 | 0.00 | 0.00 | 70 | 1019.9 |
| 20260902073507 | 77 | 153 | 3.0 | 7.0 | 0.00 | 0.00 | 0.00 | 70 | 1019.9 |
| 20260902073020 | 77 | 183 | 3.0 | 6.0 | 0.00 | 0.00 | 0.00 | 70 | 1019.9 |
| 20260902072510 | 77 | 213 | 2.0 | 7.0 | 0.00 | 0.00 | 0.00 | 69 | 1020.0 |
| 20260902072015 | 77 | 221 | 2.0 | 7.0 | 0.00 | 0.00 | 0.00 | 69 | 1020.0 |
| 20260902071530 | 77 | 243 | 3.0 | 7.0 | 0.00 | 0.00 | 0.00 | 69 | 1020.0 |
| 20260902071014 | 77 | 150 | 3.0 | 7.0 | 0.00 | 0.00 | 0.00 | 68 | 1020.1 |
| 20260902070513 | 77 | 169 | 3.0 | 7.0 | 0.00 | 0.00 | 0.00 | 68 | 1020.1 |
| 20260902070031 | 77 | 139 | 2.0 | 9.0 | 0.00 | 0.00 | 0.00 | 68 | 1020.1 |
| 20260902065515 | 77 | 174 | 4.0 | 9.0 | 0.00 | 0.00 | 0.00 | 68 | 1020.1 |
| 20260902065003 | 77 | 219 | 2.0 | 6.0 | 0.00 | 0.00 | 0.00 | 67 | 1020.1 |
| 20260902064522 | 78 | 211 | 3.0 | 6.0 | 0.00 | 0.00 | 0.00 | 67 | 1020.0 |
| 20260902064007 | 78 | 207 | 3.0 | 6.0 | 0.00 | 0.00 | 0.00 | 67 | 1020.1 |
| 20260902063510 | 78 | 224 | 2.0 | 5.0 | 0.00 | 0.00 | 0.00 | 66 | 1020.1 |
| 20260902063022 | 78 | 172 | 2.0 | 6.0 | 0.00 | 0.00 | 0.00 | 66 | 1020.1 |
| 20260902062508 | 78 | 187 | 3.0 | 9.0 | 0.00 | 0.00 | 0.00 | 65 | 1020.1 |
| 20260902062008 | 79 | 186 | 2.0 | 10.0 | 0.00 | 0.00 | 0.00 | 65 | 1020.1 |
| 20260902061529 | 79 | 167 | 3.0 | 10.0 | 0.00 | 0.00 | 0.00 | 65 | 1020.0 |
| 20260902061012 | 79 | 151 | 3.0 | 11.0 | 0.00 | 0.00 | 0.00 | 65 | 1020.0 |
| 20260902060511 | 79 | 218 | 3.0 | 11.0 | 0.00 | 0.00 | 0.00 | 65 | 1020.0 |
| 20260902060029 | 79 | 197 | 4.0 | 10.0 | 0.00 | 0.00 | 0.00 | 65 | 1020.1 |
| 20260902055518 | 79 | 165 | 3.0 | 8.0 | 0.00 | 0.00 | 0.00 | 65 | 1020.1 |
| 20260902055016 | 79 | 207 | 4.0 | 8.0 | 0.00 | 0.00 | 0.00 | 65 | 1020.0 |
| 20260902054534 | 79 | 161 | 3.0 | 9.0 | 0.00 | 0.00 | 0.00 | 66 | 1020.1 |
| 20260902054004 | 79 | 132 | 5.0 | 9.0 | 0.00 | 0.00 | 0.00 | 66 | 1020.1 |
| 20260902053505 | 78 | 188 | 3.0 | 8.0 | 0.00 | 0.00 | 0.00 | 66 | 1020.1 |
| 20260902053016 | 79 | 194 | 4.0 | 8.0 | 0.00 | 0.00 | 0.00 | 66 | 1020.0 |
| 20260902052507 | 79 | 149 | 3.0 | 7.0 | 0.00 | 0.00 | 0.00 | 65 | 1020.1 |
| 20260902052008 | 79 | 208 | 4.0 | 6.0 | 0.00 | 0.00 | 0.00 | 65 | 1020.0 |
| 20260902051535 | 79 | 204 | 3.0 | 9.0 | 0.00 | 0.00 | 0.00 | 65 | 1020.0 |
| 20260902051013 | 79 | 167 | 3.0 | 9.0 | 0.00 | 0.00 | 0.00 | 65 | 1020.0 |
| 20260902050514 | 79 | 155 | 3.0 | 8.0 | 0.00 | 0.00 | 0.00 | 64 | 1020.0 |
| 20260902050031 | 79 | 180 | 3.0 | 8.0 | 0.00 | 0.00 | 0.00 | 64 | 1019.9 |
| 20260902045517 | 79 | 190 | 3.0 | 8.0 | 0.00 | 0.00 | 0.00 | 64 | 1019.9 |
| 20260902045019 | 79 | 156 | 3.0 | 8.0 | 0.00 | 0.00 | 0.00 | 64 | 1019.9 |
| 20260902044531 | 79 | 155 | 2.0 | 7.0 | 0.00 | 0.00 | 0.00 | 64 | 1019.9 |
| 20260902044020 | 79 | 196 | 3.0 | 7.0 | 0.00 | 0.00 | 0.00 | 64 | 1019.9 |
| 20260902043513 | 79 | 173 | 2.0 | 6.0 | 0.00 | 0.00 | 0.00 | 63 | 1019.8 |
| 20260902043039 | 79 | 215 | 2.0 | 9.0 | 0.00 | 0.00 | 0.00 | 63 | 1019.9 |
| 20260902042518 | 80 | 202 | 3.0 | 9.0 | 0.00 | 0.00 | 0.00 | 63 | 1019.8 |
| 20260902042007 | 80 | 163 | 3.0 | 10.0 | 0.00 | 0.00 | 0.00 | 63 | 1019.8 |
| 20260902041540 | 80 | 166 | 5.0 | 10.0 | 0.00 | 0.00 | 0.00 | 63 | 1019.8 |
| 20260902041008 | 80 | 155 | 3.0 | 8.0 | 0.00 | 0.00 | 0.00 | 63 | 1019.8 |
| 20260902040509 | 80 | 201 | 2.0 | 7.0 | 0.00 | 0.00 | 0.00 | 63 | 1019.8 |
| 20260902040026 | 80 | 190 | 4.0 | 7.0 | 0.00 | 0.00 | 0.00 | 63 | 1019.8 |
| 20260902035512 | 80 | 191 | 4.0 | 8.0 | 0.00 | 0.00 | 0.00 | 62 | 1019.9 |
| 20260902035012 | 80 | 193 | 3.0 | 8.0 | 0.00 | 0.00 | 0.00 | 62 | 1019.8 |
| 20260902034530 | 81 | 182 | 3.0 | 8.0 | 0.00 | 0.00 | 0.00 | 62 | 1019.8 |
| 20260902034016 | 81 | 213 | 2.0 | 8.0 | 0.00 | 0.00 | 0.00 | 62 | 1019.7 |
| 20260902033514 | 81 | 168 | 3.0 | 10.0 | 0.00 | 0.00 | 0.00 | 62 | 1019.8 |
| 20260902033030 | 81 | 175 | 3.0 | 10.0 | 0.00 | 0.00 | 0.00 | 62 | 1019.8 |
| 20260902032516 | 81 | 193 | 4.0 | 9.0 | 0.00 | 0.00 | 0.00 | 62 | 1019.8 |
| 20260902032020 | 81 | 194 | 4.0 | 10.0 | 0.00 | 0.00 | 0.00 | 63 | 1019.8 |
| 20260902031536 | 81 | 172 | 3.0 | 10.0 | 0.00 | 0.00 | 0.00 | 63 | 1019.7 |
| 20260902031016 | 81 | 173 | 2.0 | 6.0 | 0.00 | 0.00 | 0.00 | 64 | 1019.6 |
| 20260902030510 | 81 | 214 | 2.0 | 7.0 | 0.00 | 0.00 | 0.00 | 64 | 1019.5 |
| 20260902030023 | 81 | 165 | 2.0 | 7.0 | 0.00 | 0.00 | 0.00 | 63 | 1019.5 |
| 20260902025503 | 81 | 200 | 2.0 | 8.0 | 0.00 | 0.00 | 0.00 | 63 | 1019.5 |
| 20260902025004 | 81 | 142 | 4.0 | 10.0 | 0.00 | 0.00 | 0.00 | 63 | 1019.5 |
| 20260902024505 | 81 | 184 | 5.0 | 10.0 | 0.00 | 0.00 | 0.00 | 63 | 1019.4 |
| 20260902024003 | 81 | 195 | 3.0 | 7.0 | 0.00 | 0.00 | 0.00 | 63 | 1019.3 |
| 20260902023516 | 81 | 133 | 3.0 | 7.0 | 0.00 | 0.00 | 0.00 | 63 | 1019.2 |
| 20260902023010 | 81 | 164 | 3.0 | 6.0 | 0.00 | 0.00 | 0.00 | 63 | 1019.2 |
| 20260902022506 | 81 | 194 | 3.0 | 6.0 | 0.00 | 0.00 | 0.00 | 63 | 1019.2 |
| 20260902022005 | 82 | 126 | 2.0 | 6.0 | 0.00 | 0.00 | 0.00 | 62 | 1019.1 |
| 20260902021512 | 82 | 165 | 1.0 | 7.0 | 0.00 | 0.00 | 0.00 | 62 | 1019.0 |
| 20260902021008 | 82 | 165 | 2.0 | 7.0 | 0.00 | 0.00 | 0.00 | 62 | 1019.0 |
| 20260902020507 | 82 | 188 | 3.0 | 8.0 | 0.00 | 0.00 | 0.00 | 62 | 1018.8 |
| 20260902020035 | 82 | 186 | 1.0 | 8.0 | 0.00 | 0.00 | 0.00 | 62 | 1018.9 |
| 20260902015510 | 82 | 210 | 3.0 | 9.0 | 0.00 | 0.00 | 0.00 | 62 | 1018.9 |
| 20260902015010 | 82 | 221 | 3.0 | 8.0 | 0.00 | 0.00 | 0.00 | 62 | 1018.9 |
| 20260902014528 | 82 | 242 | 1.0 | 8.0 | 0.00 | 0.00 | 0.00 | 62 | 1018.8 |
| 20260902014002 | 82 | 171 | 2.0 | 5.0 | 0.00 | 0.00 | 0.00 | 62 | 1018.7 |
| 20260902013502 | 82 | 186 | 2.0 | 6.0 | 0.00 | 0.00 | 0.00 | 62 | 1018.7 |
| 20260902013004 | 82 | 186 | 1.0 | 6.0 | 0.00 | 0.00 | 0.00 | 61 | 1018.7 |
| 20260902012503 | 82 | 209 | 3.0 | 6.0 | 0.00 | 0.00 | 0.00 | 61 | 1018.7 |
| 20260902012003 | 83 | 217 | 1.0 | 6.0 | 0.00 | 0.00 | 0.00 | 60 | 1018.8 |
| 20260902011513 | 83 | 223 | 2.0 | 6.0 | 0.00 | 0.00 | 0.00 | 60 | 1018.7 |
| 20260902011007 | 83 | 209 | 1.0 | 3.0 | 0.00 | 0.00 | 0.00 | 59 | 1018.7 |
| 20260902010507 | 84 | 214 | 1.0 | 5.0 | 0.00 | 0.00 | 0.00 | 58 | 1018.6 |
| 20260902010017 | 84 | 205 | 1.0 | 5.0 | 0.00 | 0.00 | 0.00 | 58 | 1018.6 |
| 20260902005516 | 84 | 193 | 1.0 | 5.0 | 0.00 | 0.00 | 0.00 | 57 | 1018.6 |
| 20260902005010 | 85 | 167 | 1.0 | 3.0 | 0.00 | 0.00 | 0.00 | 56 | 1018.6 |
| 20260902004533 | 85 | 192 | 1.0 | 4.0 | 0.00 | 0.00 | 0.00 | 56 | 1018.6 |
| 20260902004009 | 85 | 225 | 2.0 | 4.0 | 0.00 | 0.00 | 0.00 | 55 | 1018.6 |
| 20260902003514 | 86 | 192 | 1.0 | 5.0 | 0.00 | 0.00 | 0.00 | 54 | 1018.6 |
| 20260902003022 | 86 | 170 | 1.0 | 6.0 | 0.00 | 0.00 | 0.00 | 54 | 1018.6 |
| 20260902002502 | 87 | 171 | 3.0 | 7.0 | 0.00 | 0.00 | 0.00 | 53 | 1018.6 |
| 20260902002003 | 87 | 175 | 3.0 | 6.0 | 0.00 | 0.00 | 0.00 | 52 | 1018.6 |
| 20260902001508 | 87 | 168 | 3.0 | 6.0 | 0.00 | 0.00 | 0.00 | 51 | 1018.6 |
| 20260902001003 | 88 | 184 | 2.0 | 6.0 | 0.00 | 0.00 | 0.00 | 51 | 1018.7 |
| 20260902000503 | 88 | 176 | 2.0 | 5.0 | 0.00 | 0.00 | 0.00 | 50 | 1018.7 |
| 20260902000022 | 89 | 233 | 2.0 | 10.0 | 0.00 | 0.00 | 0.00 | 49 | 1018.8 |
| 20260901235519 | 90 | 259 | 3.0 | 10.0 | 0.00 | 0.00 | 0.00 | 48 | 1018.8 |
| 20260901235015 | 90 | 156 | 2.0 | 5.0 | 0.00 | 0.00 | 0.00 | 47 | 1018.9 |
| 20260901234523 | 90 | 198 | 1.0 | 7.0 | 0.00 | 0.00 | 0.00 | 46 | 1018.9 |
| 20260901234010 | 91 | 72 | 1.0 | 9.0 | 0.00 | 0.00 | 0.00 | 45 | 1018.9 |
| 20260901233510 | 91 | 236 | 2.0 | 9.0 | 0.00 | 0.00 | 0.00 | 44 | 1018.9 |
| 20260901233037 | 92 | 219 | 1.0 | 7.0 | 0.00 | 0.00 | 0.00 | 42 | 1019.0 |
| 20260901232518 | 92 | 178 | 3.0 | 7.0 | 0.00 | 0.00 | 0.00 | 41 | 1019.1 |
| 20260901232013 | 92 | 188 | 3.0 | 5.0 | 0.00 | 0.00 | 0.00 | 39 | 1019.1 |
| 20260901231507 | 92 | 169 | 2.0 | 5.0 | 0.00 | 0.00 | 0.00 | 38 | 1019.0 |
| 20260901231003 | 92 | 200 | 2.0 | 6.0 | 0.00 | 0.00 | 0.00 | 38 | 1019.0 |
| 20260901230503 | 93 | 281 | 2.0 | 8.0 | 0.00 | 0.00 | 0.00 | 38 | 1019.1 |
| 20260901230016 | 93 | 229 | 4.0 | 8.0 | 0.00 | 0.00 | 0.00 | 37 | 1019.1 |
| 20260901225508 | 93 | 205 | 1.0 | 9.0 | 0.00 | 0.00 | 0.00 | 37 | 1019.1 |
| 20260901225008 | 93 | 97 | 4.0 | 11.0 | 0.00 | 0.00 | 0.00 | 36 | 1018.9 |
| 20260901224521 | 93 | 163 | 3.0 | 11.0 | 0.00 | 0.00 | 0.00 | 36 | 1018.9 |
| 20260901224008 | 94 | 163 | 3.0 | 7.0 | 0.00 | 0.00 | 0.00 | 36 | 1018.9 |
| 20260901223511 | 94 | 94 | 3.0 | 7.0 | 0.00 | 0.00 | 0.00 | 35 | 1018.8 |
| 20260901223033 | 94 | 167 | 3.0 | 7.0 | 0.00 | 0.00 | 0.00 | 34 | 1018.8 |
| 20260901222514 | 95 | 100 | 1.0 | 7.0 | 0.00 | 0.00 | 0.00 | 35 | 1018.9 |
| 20260901222014 | 95 | 40 | 3.0 | 6.0 | 0.00 | 0.00 | 0.00 | 34 | 1019.0 |
| 20260901221538 | 94 | 202 | 3.0 | 7.0 | 0.00 | 0.00 | 0.00 | 1018.9 | |
| 20260901221014 | 94 | 178 | 2.0 | 7.0 | 0.00 | 0.00 | 0.00 | 32 | 1019.0 |
| 20260901220514 | 94 | 294 | 1.0 | 8.0 | 0.00 | 0.00 | 0.00 | 32 | 1018.9 |
| 20260901220039 | 94 | 145 | 3.0 | 9.0 | 0.00 | 0.00 | 0.00 | 32 | 1018.9 |
| 20260901215503 | 94 | 156 | 5.0 | 10.0 | 0.00 | 0.00 | 0.00 | 32 | 1018.9 |
| 20260901215011 | 94 | 195 | 4.0 | 10.0 | 0.00 | 0.00 | 0.00 | 32 | 1018.8 |
| 20260901214516 | 94 | 191 | 3.0 | 12.0 | 0.00 | 0.00 | 0.00 | 33 | 1018.9 |
| 20260901214010 | 94 | 51 | 3.0 | 12.0 | 0.00 | 0.00 | 0.00 | 33 | 1018.9 |
| 20260901213509 | 95 | 61 | 3.0 | 10.0 | 0.00 | 0.00 | 0.00 | 34 | 1018.9 |
| 20260901213022 | 95 | 123 | 3.0 | 9.0 | 0.00 | 0.00 | 0.00 | 34 | 1018.9 |